Tracking 20621 objects as of 29-Mar-2020
HD Live streaming from Space Station
objects crossing your sky now

DELTA 1 DEB

Track DELTA 1 DEB now!
10-day predictions


NORAD ID: 10227
Int'l Code: 1977-065BE
Perigee: 570.7 km
Apogee: 1,638.8 km
Inclination: 29.0 °
Period: 107.2 minutes
Semi major axis: 7475 km
RCS: 0.265 m2 (medium)
Launch date: July 14, 1977
Source: United States (US)
Launch site: AIR FORCE EASTERN TEST RANGE (AFETR)

Note: This is SATELLITE DEBRIS
aabbcc
Your satellite tracking list
Your tracking list is empty




NASA's NSSDC Master Catalog

Two Line Element Set (TLE):
1 10227U 77065BE  20089.20579331 +.00000002 +00000-0 -38546-4 0  9999
2 10227 028.9563 009.0291 0714383 278.9006 073.1395 13.43129865068336
Source of the keplerian elements: AFSPC